Total_Precipitation_Accumulation
2.20 2.36 2.49 2.49 2.55 2.61 2.74 2.87 2.96 2.77 2.48 2.30 2.24 2.18 2.21 2.27 2.49 2.09 2.03 2.24 2.08 1.94 1.84 1.80 1.82 1.95 2.04 1.98 1.95 2.04 2.13 2.20 2.30 2.40 2.50 2.70 2.84 2.94
1.94 2.06 2.17 2.24 2.37 2.44 2.54 2.66 2.72 2.67 2.51 2.25 2.19 2.18 2.15 1.99 2.20 1.91 1.94 2.11 1.96 1.85 1.74 1.70 1.68 1.73 1.80 1.86 1.85 1.81 1.79 1.76 1.80 1.86 1.94 2.05 2.24 2.47
1.98 2.03 2.07 2.11 2.20 2.19 2.21 2.27 2.38 2.54 2.66 2.51 2.33 2.25 2.25 2.15 2.02 1.81 1.70 1.70 1.66 1.76 1.72 1.68 1.62 1.60 1.66 1.67 1.62 1.58 1.54 1.52 1.53 1.57 1.62 1.72 1.79 1.91
1.87 1.98 1.95 1.92 1.97 2.04 2.10 2.08 2.12 2.28 2.44 2.44 2.30 2.16 2.14 2.13 2.07 1.97 1.65 1.50 1.48 1.53 1.47 1.42 1.42 1.43 1.41 1.44 1.44 1.41 1.37 1.36 1.38 1.40 1.43 1.49 1.57 1.67
1.65 1.68 1.71 1.75 1.71 1.74 1.79 1.85 1.84 1.87 2.07 2.14 2.10 2.04 1.97 1.93 2.01 1.98 1.78 1.79 1.44 1.36 1.29 1.21 1.18 1.17 1.15 1.15 1.19 1.26 1.27 1.23 1.19 1.21 1.26 1.34 1.41 1.47
1.36 1.35 1.38 1.49 1.54 1.61 1.57 1.63 1.69 1.82 1.90 1.96 1.93 1.90 1.89 1.78 1.86 1.90 1.86 1.73 1.53 1.26 1.27 1.14 1.05 0.98 0.96 0.97 0.99 1.02 1.07 1.15 1.26 1.26 1.19 1.12 1.14 1.19
1.16 1.10 1.06 1.21 1.35 1.35 1.26 1.39 1.56 1.74 1.80 1.82 1.77 1.70 1.64 1.73 1.73 1.68 1.70 1.69 1.59 1.41 1.43 1.24 1.13 1.06 1.06 1.04 0.98 0.95 0.98 0.99 1.03 1.09 1.10 1.06 1.05 1.04
1.15 1.14 1.03 1.06 1.11 1.08 1.03 1.17 1.39 1.48 1.57 1.70 1.73 1.68 1.63 1.67 1.71 1.70 1.74 1.79 1.77 1.54 1.57 1.44 1.31 1.30 1.20 1.10 1.05 0.96 0.94 1.00 0.97 0.95 0.96 0.98 1.02 1.04
1.11 1.12 0.97 0.90 1.01 1.04 1.05 1.05 1.14 1.16 1.28 1.55 1.71 1.65 1.65 1.74 1.86 1.81 1.91 1.91 1.80 1.69 1.81 1.72 1.44 1.33 1.07 0.99 1.05 0.95 0.93 0.96 1.00 0.98 0.96 0.95 0.97 1.00
1.08 1.11 1.14 1.06 0.96 0.98 0.98 1.02 1.10 1.16 1.14 1.21 1.46 1.54 1.56 1.70 1.83 1.90 1.99 1.92 1.80 1.75 1.87 1.89 1.54 1.41 1.15 1.13 1.07 0.93 0.90 0.90 0.93 0.94 0.94 0.96 0.99 1.06
1.01 1.00 1.06 1.06 1.01 0.93 0.97 1.10 1.18 1.21 1.05 1.07 1.17 1.28 1.35 1.48 1.58 1.69 1.93 2.08 1.93 1.69 1.68 1.82 1.60 1.49 1.35 1.26 1.12 1.01 0.91 0.89 0.87 0.88 0.90 0.94 1.01 1.09
1.00 1.00 0.94 0.94 0.96 0.93 0.98 1.12 1.19 1.20 1.11 1.10 1.27 1.37 1.35 1.45 1.52 1.64 1.91 2.00 1.87 1.78 1.56 1.66 1.62 1.64 1.61 1.32 1.19 1.13 1.05 0.96 0.86 0.84 0.87 0.90 1.00 1.00
0.92 0.97 0.94 0.89 0.86 0.90 1.01 1.06 1.10 1.09 1.22 1.37 1.42 1.44 1.46 1.51 1.52 1.56 1.77 1.91 1.94 1.90 1.61 1.66 1.69 1.75 1.83 1.52 1.27 1.20 1.20 1.16 1.08 1.04 1.03 1.02 1.03 0.99
0.94 0.95 0.89 0.86 0.84 0.88 0.96 1.02 1.03 1.10 1.29 1.47 1.52 1.48 1.41 1.39 1.42 1.44 1.60 1.75 1.81 1.74 1.62 1.69 1.82 1.83 1.75 1.53 1.35 1.20 1.19 1.26 1.36 1.42 1.38 1.37 1.24 1.18
0.82 0.84 0.80 0.82 0.85 0.98 1.04 1.07 1.15 1.34 1.46 1.50 1.54 1.50 1.39 1.33 1.33 1.30 1.40 1.59 1.60 1.42 1.29 1.41 1.67 1.73 1.76 1.65 1.48 1.40 1.35 1.32 1.44 1.65 1.70 1.60 1.44 1.31
0.73 0.77 0.84 0.89 0.95 1.08 1.21 1.31 1.35 1.39 1.37 1.46 1.51 1.44 1.31 1.27 1.32 1.32 1.41 1.52 1.56 1.45 1.27 1.24 1.41 1.64 1.76 1.67 1.59 1.52 1.49 1.57 1.54 1.63 1.78 1.81 1.66 1.41
0.64 0.82 1.06 1.13 1.21 1.29 1.33 1.38 1.43 1.36 1.28 1.29 1.37 1.39 1.36 1.30 1.27 1.25 1.37 1.43 1.50 1.44 1.34 1.25 1.29 1.40 1.45 1.52 1.58 1.49 1.46 1.53 1.63 1.70 1.86 1.98 1.89 1.59
0.66 0.89 1.03 1.10 1.19 1.23 1.25 1.27 1.30 1.32 1.25 1.21 1.22 1.22 1.20 1.19 1.22 1.19 1.24 1.37 1.44 1.33 1.27 1.23 1.21 1.29 1.34 1.31 1.34 1.38 1.41 1.54 1.66 1.73 1.72 1.85 2.00 1.80
0.82 0.97 0.99 1.05 1.13 1.11 1.11 1.12 1.14 1.15 1.10 1.09 1.08 1.06 1.04 1.03 1.11 1.14 1.12 1.15 1.15 1.09 1.07 1.09 1.17 1.32 1.41 1.44 1.34 1.36 1.46 1.56 1.66 1.71 1.71 1.76 1.92 1.83
0.93 0.96 0.97 0.97 1.02 1.02 1.02 1.02 0.98 0.94 0.92 0.95 1.01 1.02 1.02 1.00 0.99 1.00 0.98 1.00 1.06 1.05 1.03 1.08 1.13 1.21 1.31 1.38 1.54 1.60 1.49 1.42 1.49 1.64 1.76 1.78 1.86 1.82
0.87 0.89 0.93 0.92 0.91 0.97 0.97 0.89 0.84 0.82 0.83 0.84 0.86 0.90 0.93 0.90 0.89 0.85 0.83 0.82 0.91 0.97 1.00 1.01 1.02 1.05 1.11 1.22 1.39 1.53 1.53 1.56 1.52 1.57 1.67 1.73 1.65 1.54
0.79 0.78 0.77 0.77 0.81 0.85 0.82 0.76 0.72 0.73 0.74 0.76 0.78 0.78 0.78 0.79 0.80 0.76 0.74 0.77 0.83 0.85 0.88 0.90 0.94 1.01 1.11 1.25 1.35 1.45 1.50 1.39 1.34 1.42 1.45 1.36 1.28 1.34
0.77 0.72 0.67 0.66 0.68 0.72 0.72 0.70 0.68 0.68 0.68 0.72 0.73 0.72 0.71 0.71 0.67 0.65 0.65 0.66 0.68 0.71 0.78 0.86 0.90 0.99 1.03 1.04 1.09 1.15 1.14 1.13 1.09 1.06 1.15 1.24 1.23 1.25